Regional Weather Roundup
Issued by NWS

Home | Current Version | Previous Version | Graphics & Text | Print | Product List | Glossary On
Versions: 1 2 3 4 5 6 7 8 9 10 11 12 13 14 15 16 17 18 19 20 21 22 23 24 25 26 27 28 29 30 31 32 33 34 35 36 37 38 39 40 41 42 43 44 45 46 47 48 49 50
000
ASUS43 KDTX 270601
RWRMI
MICHIGAN HOURLY REGIONAL WEATHER ROUNDUP
NATIONAL WEATHER SERVICE DETROIT/PONTIAC MI
100 AM EST FRI FEB 27 2015

NOTE: "FAIR" INDICATES FEW OR NO CLOUDS BELOW 12,000 FEET WITH NO
SIGNIFICANT WEATHER AND/OR OBSTRUCTION TO VISIBILITY.

MIZ047>049-052>055-059>063-066>070-074>076-081>083-270700-
SOUTHEAST LOWER MICHIGAN

CITY           SKY/WX    TMP DP  RH WIND       PRES   REMARKS
ADRIAN         CLEAR     -1  -6  79 N5        30.35S WCI -11
6HR MIN TEMP:  -1; 6HR MAX TEMP:  11;

ALMA           CLEAR     -2 -12  61 NW3       30.38R
ANN ARBOR      CLEAR     -9 -12  87 W3        30.34S
BAD AXE        CLOUDY    -7 -10  84 CALM      30.36R
CARO           MOCLDY    -9 -15  77 CALM      30.36R
DETROIT CITY   PTCLDY     6  -4  63 N3        30.36R
6HR MIN TEMP:   6; 6HR MAX TEMP:  13;

DETROIT        PTCLDY     5  -3  69 CALM      30.37R
6HR MIN TEMP:   4; 6HR MAX TEMP:  13;

FLINT          CLEAR     -8 -15  71 CALM      30.36R
6HR MIN TEMP: -11; 6HR MAX TEMP:  11;

GROSSE ILE     CLEAR      3  -2  78 CALM      30.35S
HILLSDALE      CLEAR     -2  -6  81 CALM      30.31R
6HR MIN TEMP:  -3; 6HR MAX TEMP:  10;

HOWELL         PTCLDY    -3  -7  84 W3        30.33S
6HR MIN TEMP:  -5; 6HR MAX TEMP:   8;


CITY           SKY/WX    TMP DP  RH WIND       PRES   REMARKS
JACKSON        CLEAR     -8 -11  86 NW3       30.34R
6HR MIN TEMP:  -8; 6HR MAX TEMP:   9;

LAMBERTVILLE   CLEAR      1  -6  71 CALM      30.37R
LANSING        CLEAR      1 -11  57 NW7       30.37R WCI -12
6HR MIN TEMP:  -4; 6HR MAX TEMP:   9;

LAPEER         CLOUDY   -10 -15  78 CALM      30.35R
MASON          CLEAR     -7 -11  81 CALM      30.34S
MONROE         CLEAR      0  -4  85 CALM      30.35R
PONTIAC        PTCLDY    -3  -8  79 CALM      30.32R
6HR MIN TEMP:  -3; 6HR MAX TEMP:   8;

PORT HOPE        N/A      4  -7  60 NW8       30.35R WCI  -9
6HR MIN TEMP:   3; 6HR MAX TEMP:   6;

PORT HURON     CLEAR     -8 -11  84 NW5       30.36R WCI -19
TRI CITIES     CLEAR      0 -11  59 N8        30.38R WCI -14
6HR MIN TEMP:   0; 6HR MAX TEMP:   9;

TROY           PTCLDY     4  -4  71 CALM      30.37S
SAGINAW HB     CLEAR      1  -6  71 NW3       30.38R
$$
MIZ043>046-050>051-056>058-064>065-071>073-077>080-270700-
SOUTHWEST LOWER MICHIGAN

CITY           SKY/WX    TMP DP  RH WIND       PRES   REMARKS
BATTLE CREEK   CLEAR      0 -10  63 N7        30.35R WCI -13
6HR MIN TEMP:  -3; 6HR MAX TEMP:  11;

BENTON HARBOR  MOCLDY     5  -7  57 NE5       30.40R WCI  -4
6HR MIN TEMP:   4; 6HR MAX TEMP:  12;

BIG RAPIDS     PTCLDY   -10 -15  76 CALM      30.35S
6HR MIN TEMP: -10; 6HR MAX TEMP:   7;

COLDWATER      CLEAR     -6 -10  83 CALM      30.34R
6HR MIN TEMP:  -6; 6HR MAX TEMP:  11;

FREMONT        FAIR      -4 -13  65 CALM      30.38S
HOLLAND        CLEAR      3 -10  54 CALM      30.41R
6HR MIN TEMP:   3; 6HR MAX TEMP:  12;

GRAND RAPIDS   CLEAR      1 -11  57 N5        30.39R WCI  -9
6HR MIN TEMP:   1; 6HR MAX TEMP:  11;

IONIA          FAIR       1 -10  58 NW5       30.37R WCI  -9
KALAMAZOO      PTCLDY    -1 -10  65 N9        30.37R WCI -16
6HR MIN TEMP:  -1; 6HR MAX TEMP:  10;

LUDINGTON      MOCLDY    -2  -9  74 CALM      30.40R
6HR MIN TEMP:  -4; 6HR MAX TEMP:   8;

MARSHALL       CLEAR    -11 -16  81 CALM      30.34S
MOUNT PLEASANT CLEAR     -4 -12  67 W3        30.37S
6HR MIN TEMP:  -5; 6HR MAX TEMP:  10;

MUSKEGON       CLEAR     -1 -10  65 CALM      30.41R
6HR MIN TEMP:  -1; 6HR MAX TEMP:  10;

SOUTH HAVEN    CLEAR      2  -9  59 CALM      30.39S
$$
MIZ016>042-270700-
NORTHERN LOWER MICHIGAN

CITY           SKY/WX    TMP DP  RH WIND       PRES   REMARKS
ALPENA         CLEAR     -6 -12  75 W3        30.35R
6HR MIN TEMP:  -7; 6HR MAX TEMP:   3;

BEAVER ISLAND  PTCLDY    -1  -5  80 CALM      30.36S
6HR MIN TEMP: -14; 6HR MAX TEMP:   2;

BELLAIRE       PTCLDY   -18 -24  73 CALM      30.40S
6HR MIN TEMP: -18; 6HR MAX TEMP:   1;

CADILLAC       PTCLDY   -19 -27  68 CALM      30.30S
CHARLEVOIX     PTCLDY   -12 -16  80 CALM      30.39S
6HR MIN TEMP: -13; 6HR MAX TEMP:   0;

FRANKFORT      CLOUDY    -8 -13  81 CALM      30.38S
GAYLORD        CLEAR    -17 -24  70 NW5       30.28S WCI -30
6HR MIN TEMP: -19; 6HR MAX TEMP:   0;

GRAYLING       CLEAR    -22 -28  72 CALM      30.33R
HARBOR SPRINGS CLEAR    -13 -18  79 CALM      30.35S
HOUGHTON LAKE  CLEAR    -14 -19  79 CALM      30.33R
6HR MIN TEMP: -15; 6HR MAX TEMP:   3;

MANISTEE       PTCLDY    -9 -13  84 E3        30.38S
OSCODA         CLEAR     -8 -14  75 SW5       30.36S WCI -20
PELLSTON       CLEAR    -22 -27  77 CALM      30.36S
6HR MIN TEMP: -22; 6HR MAX TEMP:   1;

ROGERS CITY    CLEAR     -4  -8  81 W5        30.36R WCI -15
TRAVERSE CITY  CLEAR    -14 -19  79 CALM      30.38R
6HR MIN TEMP: -14; 6HR MAX TEMP:   1;

$$
MIZ007>008-015-270700-
EASTERN UPPER MICHIGAN

CITY           SKY/WX    TMP DP  RH WIND       PRES   REMARKS
KINROSS        CLEAR     -6  -8  92 SW7       30.31S WCI -20
6HR MIN TEMP:  -8; 6HR MAX TEMP:  -2;

MACKINAC ISLAN CLOUDY    -4 -10  77 SW9       30.34R WCI -20
6HR MIN TEMP:  -5; 6HR MAX TEMP:   2;

NEWBERRY       CLEAR     -8 -10  92 SW7       30.31S WCI -22
S. S. MARIE    LGT SNOW  -2  -7  79 W5        30.30S WCI -12
6HR MIN TEMP:  -4; 6HR MAX TEMP:   0; 6HR PCP: TRACE;

MUNISING         N/A     -9 -15  75 S8        30.34S WCI -25
6HR MIN TEMP: -11; 6HR MAX TEMP:   1; 6HR PCP:  0.01;

$$
MIZ004>006-011>014-085-270700-
CENTRAL UPPER MICHIGAN

CITY           SKY/WX    TMP DP  RH WIND       PRES   REMARKS
MANISTIQUE     PTCLDY    -8 -12  83 W5        30.35S WCI -20
6HR MIN TEMP: -12; 6HR MAX TEMP:   1;

ESCANABA       CLEAR    -13 -27  48 W5        30.38S WCI -25
6HR MIN TEMP: -13; 6HR MAX TEMP:   5;

MENOMINEE      CLEAR     -6 -11  77 CALM      30.39S
6HR MIN TEMP:  -6; 6HR MAX TEMP:   7;

SAWYER-GWINN   CLEAR     -6 -12  78 CALM      30.28S
$$
MIZ001>003-009>011-084-270700-
WESTERN UPPER MICHIGAN

CITY           SKY/WX    TMP DP  RH WIND       PRES   REMARKS
IRON MOUNTAIN  CLEAR    -10 -17  71 CALM      30.31R
6HR MIN TEMP: -11; 6HR MAX TEMP:   6;

HOUGHTON       CLEAR     -1  -9  68 W5        30.29R WCI -11
6HR MIN TEMP:  -5; 6HR MAX TEMP:   3;

COPPER HARBOR    N/A      4  -4  69 N7        30.32R WCI  -8
6HR MIN TEMP:   3; 6HR MAX TEMP:   8;

IRONWOOD       CLEAR     -8  -8 100 SW5       30.32R WCI -19
6HR MIN TEMP:  -9; 6HR MAX TEMP:   3;

$$

ABBREVIATIONS USED IN REMARKS
   TC - TEMPERATURE IN CELSIUS
  WCI - WIND CHILL INDEX
   HX - HEAT INDEX
  VSB - VISIBILITY



USA.gov is the U.S. government's official web portal to all federal, state and local government web resources and services.